Dewpoint
53 53 53 52 52 52 39 30 23 38 40 29 28 25 22 31 26 27 26 24 22 19 19 20 21 20 20 27 26 22 22 19 19 18 22 27 23 20 21 21 14 17 17 21
53 53 53 52 52 49 39 31 29 36 36 24 26 26 25 26 25 24 24 24 24 23 21 18 22 24 27 29 27 22 24 19 13 15 17 21 23 24 18 19 20 16 16 19
53 53 52 52 52 48 37 32 27 29 33 29 26 24 22 22 27 24 25 23 24 24 22 22 19 25 28 30 30 33 26 20 15 15 14 20 21 21 22 19 19 15 18 18
52 53 52 52 51 47 36 31 27 27 20 24 25 23 21 21 19 26 25 22 23 23 20 20 20 22 27 30 32 29 23 18 19 19 17 19 19 17 21 19 17 15 14 15
53 53 52 52 51 45 33 27 24 27 25 23 24 26 23 22 22 23 22 23 19 23 20 19 18 21 25 23 28 27 26 16 19 15 17 18 18 20 19 20 20 17 17 16
53 53 52 52 50 45 36 33 31 26 25 22 20 20 21 21 23 22 19 24 20 22 23 22 23 24 22 22 27 25 24 19 15 7 15 14 9 14 17 19 20 19 17 17
53 53 52 52 51 46 40 35 32 28 27 23 21 20 20 19 20 20 21 23 20 20 29 27 26 25 26 25 25 24 21 15 16 10 9 1 4 13 17 17 15 21 19 19
53 52 51 51 51 47 41 36 34 31 28 26 25 25 24 24 24 24 22 24 23 29 25 18 15 14 17 21 25 24 20 18 17 12 8 7 7 12 14 11 8 16 18 18
47 48 48 48 49 49 44 41 37 33 31 29 30 25 22 20 21 21 25 32 31 27 23 17 11 10 10 17 23 26 24 21 15 15 12 6 8 12 17 13 8 9 18 17
43 45 45 45 46 46 46 45 41 39 34 33 27 30 30 24 24 23 27 29 29 27 22 18 17 10 13 15 19 23 24 23 20 16 14 16 16 15 16 6 10 16 18 19
41 42 43 45 44 44 43 42 44 40 36 36 33 31 26 26 27 24 27 26 28 27 22 19 18 15 13 14 18 22 22 21 21 20 17 15 19 18 9 11 15 19 20 21
40 39 40 39 41 45 43 39 43 43 36 36 40 38 38 36 35 34 30 27 27 29 25 23 21 18 17 11 8 20 16 20 20 20 20 20 20 18 18 16 16 20 22 22
38 36 38 38 40 39 40 41 41 40 35 35 35 34 35 39 40 40 35 31 30 29 29 27 24 19 19 14 13 11 19 22 20 19 18 22 23 23 22 21 20 21 22 23
36 36 37 37 38 38 38 39 40 39 36 30 28 34 35 39 40 40 40 39 35 35 34 29 27 23 23 19 18 14 14 21 20 20 21 21 20 23 22 23 23 23 23 23
39 38 37 37 37 37 39 38 38 40 33 28 28 30 26 31 39 40 39 39 37 35 32 31 30 30 27 24 21 18 18 18 17 18 19 18 18 18 21 22 23 24 25 24
38 39 39 38 37 36 36 33 41 41 40 30 26 30 32 33 34 34 34 36 36 33 33 33 34 33 31 29 24 25 23 22 22 20 21 21 20 19 20 21 22 23 24 25
37 38 39 40 38 36 34 29 38 41 36 30 25 30 32 32 32 32 31 34 35 34 33 31 32 32 35 30 26 23 25 23 22 22 22 21 21 20 21 22 23 26 27 26
38 38 38 38 39 38 35 37 39 38 34 31 22 25 28 32 31 30 33 31 33 33 33 32 30 31 32 27 27 26 26 26 25 25 25 23 22 22 23 23 25 26 26 26
39 39 38 36 35 32 33 39 40 39 35 26 26 21 18 32 31 32 32 33 27 32 29 30 30 29 25 26 28 27 27 27 27 28 28 28 24 24 25 25 25 25 26 26
37 37 30 26 31 37 36 34 30 30 33 32 23 27 24 28 30 30 27 30 26 22 26 31 28 25 24 25 26 26 26 27 27 27 27 28 28 31 31 32 30 29 30 30
35 32 27 30 35 30 26 23 26 29 27 30 29 26 23 29 26 26 28 23 25 21 23 25 24 22 23 26 28 29 29 29 27 29 30 32 31 31 30 29 26 24 24 25
34 31 31 29 25 20 18 17 21 23 20 26 25 25 29 31 30 28 26 23 22 17 28 25 20 22 27 27 28 30 29 27 27 27 26 25 25 24 24 24 23 23 23 23
36 31 26 19 13 10 12 5 11 16 22 24 22 21 26 30 31 28 27 23 21 27 22 18 19 25 25 26 28 29 29 29 30 31 31 27 24 25 24 24 25 25 25 26
25 18 14 17 4 8 13 13 11 17 17 21 23 21 24 23 22 25 16 22 23 17 15 13 20 22 23 26 27 27 27 26 23 21 20 20 24 28 29 28 29 30 29 29
19 19 15 10 16 12 10 8 12 19 18 19 17 20 25 21 17 23 19 13 16 16 14 20 23 22 19 19 20 21 21 20 20 21 20 20 19 18 17 17 16 16 17 18
15 14 12 17 10 9 14 15 17 22 21 22 22 21 16 17 19 18 15 13 11 16 19 24 22 20 19 18 18 19 19 16 16 18 18 19 19 19 19 18 18 19 19 18
9 8 17 14 10 11 17 19 20 22 19 13 18 13 12 17 16 15 18 15 19 23 24 23 19 17 17 17 17 18 17 17 17 17 17 17 17 17 17 17 18 19 20 20
Lifted_Index
8 9 9 9 9 9 9 8 8 10 10 8 6 6 6 8 8 8 8 8 7 7 7 6 6 7 8 8 8 8 7 6 4 4 3 3 2 1 1 1 1 2 2 2
8 8 9 9 9 9 9 8 8 9 9 7 6 6 7 7 8 8 8 8 8 7 7 7 7 7 8 9 8 8 7 6 4 3 4 3 2 2 1 1 1 2 3 3
8 8 8 9 9 9 9 8 8 8 8 7 7 7 7 7 7 8 8 8 8 7 7 7 7 7 8 9 9 8 8 6 5 4 4 5 4 3 3 2 2 3 4 4
7 7 8 8 9 9 9 8 8 8 8 7 7 7 7 7 7 8 8 8 7 7 7 6 7 8 8 8 9 9 8 6 5 5 6 6 5 4 4 4 4 4 4 5
6 6 7 7 8 8 8 8 8 8 8 8 8 8 8 7 7 8 8 8 8 7 7 7 8 8 9 9 9 9 8 6 5 5 6 6 5 5 5 5 5 5 4 4
5 5 6 7 7 7 8 8 8 8 9 9 9 8 8 8 8 8 9 8 8 8 8 9 9 10 10 9 9 9 8 7 6 5 5 5 4 5 5 5 5 5 5 4
4 4 5 6 6 6 7 7 8 8 9 9 9 9 9 9 9 9 9 9 9 9 10 10 10 10 10 10 10 9 8 7 6 5 5 4 4 5 5 5 6 6 6 6
4 4 5 5 5 5 6 6 7 7 8 9 9 9 10 10 10 10 10 10 10 10 10 9 8 8 8 8 9 9 9 8 7 5 5 5 5 6 6 6 5 6 7 7
6 6 6 5 5 5 5 6 6 7 7 8 8 9 9 10 10 10 10 10 10 10 9 8 7 7 7 7 8 8 8 8 6 5 5 5 6 7 7 6 6 6 7 7
9 8 8 7 7 7 6 6 6 6 6 7 7 8 8 9 9 10 10 10 10 10 9 8 7 7 7 7 7 7 7 6 6 5 5 6 6 7 7 7 7 7 8 8
10 10 9 9 9 8 8 7 7 6 6 6 7 7 7 8 8 8 9 9 9 9 8 8 8 8 8 7 7 7 6 5 5 5 6 6 7 7 7 7 8 9 9 10
9 10 10 10 9 9 9 8 8 8 7 6 6 6 6 6 7 7 7 8 8 8 8 8 7 7 7 7 7 7 6 6 6 6 6 6 6 7 7 8 8 9 10 10
8 9 9 9 9 9 10 9 9 9 8 6 6 6 6 6 6 6 6 6 7 7 7 7 6 6 7 7 6 6 6 6 6 6 6 6 6 7 7 8 9 9 10 10
7 7 8 8 9 9 10 10 10 10 9 7 6 7 7 7 7 7 6 6 6 6 6 5 5 5 6 6 6 6 6 6 5 5 5 5 6 6 7 8 9 9 10 10
6 6 7 7 8 9 9 10 10 10 9 8 7 8 9 9 8 8 7 7 6 6 5 5 5 5 5 5 5 6 5 5 5 5 5 6 6 6 7 7 8 8 9 9
5 5 6 7 7 8 9 9 9 9 9 8 8 8 9 9 9 8 8 8 7 7 6 5 5 5 5 5 5 6 6 5 5 6 6 6 6 6 7 7 7 8 8 8
4 4 5 5 6 7 8 8 8 8 9 9 8 8 8 7 8 8 8 8 8 7 7 6 6 6 6 5 5 6 6 6 6 6 6 7 7 7 7 7 7 8 8 8
3 3 3 4 5 6 7 7 7 8 9 9 8 8 7 7 7 7 7 7 7 7 7 6 6 6 6 6 6 6 6 6 6 7 7 7 7 7 7 7 7 7 8 8
2 2 3 3 4 5 6 6 6 7 8 8 8 7 7 7 7 6 6 6 6 6 6 6 6 6 6 6 6 6 6 6 7 7 7 7 7 7 7 8 8 8 8 8
3 3 3 3 4 4 5 5 5 5 6 6 7 7 7 7 7 6 6 6 6 6 6 6 6 6 6 6 6 6 7 7 7 7 7 7 7 7 7 7 7 7 8 8
3 3 3 4 4 4 5 4 4 3 3 4 5 5 6 6 6 5 5 5 5 5 4 4 4 5 5 6 6 6 6 7 7 7 7 7 7 7 7 7 7 7 7 7
3 3 3 4 4 4 4 4 3 2 2 3 3 4 4 4 4 4 4 3 3 3 3 3 3 4 5 5 5 5 6 6 6 7 7 7 7 6 6 6 6 6 6 6
2 3 3 3 3 4 4 3 3 3 3 3 4 4 4 3 3 2 2 1 1 1 1 2 3 4 5 5 5 5 5 5 5 6 6 6 6 5 5 5 6 5 5 5
2 2 2 2 2 2 3 3 3 3 3 4 4 3 3 3 3 2 1 1 1 1 1 2 3 4 5 5 5 5 5 5 5 6 6 5 5 6 6 6 6 6 6 6
1 1 1 1 1 2 2 2 3 3 3 3 3 2 2 2 2 2 1 1 1 1 2 3 4 5 5 5 5 6 6 6 6 6 6 6 6 6 7 7 7 7 7 7
1 1 1 1 2 2 2 2 2 2 2 2 2 1 1 1 1 1 1 1 1 2 3 4 5 5 5 5 6 6 6 6 6 6 7 7 7 7 7 7 7 7 7 7
2 2 2 2 2 2 2 2 2 2 2 1 1 1 1 1 1 1 1 2 2 3 4 4 5 5 5 5 5 6 6 6 6 6 6 7 7 7 7 7 7 7 7 7